QPF
0.00 0.00 0.00 0.00 0.00 0.00 0.00 0.00 0.00 0.00 0.00 0.00 0.00 0.00 0.00 0.00 0.00 0.00 0.00 0.00 0.00 0.00 0.00 0.00 0.00 0.00 0.00 0.00 0.00 0.00 0.00 0.00 0.00 0.00 0.00 0.00 0.00 0.00 0.00 0.00 0.00 0.00 0.01 0.00 0.00 0.00 0.00 0.00 0.00
0.00 0.00 0.00 0.00 0.00 0.00 0.00 0.00 0.00 0.00 0.00 0.00 0.00 0.00 0.00 0.00 0.00 0.00 0.00 0.00 0.00 0.00 0.00 0.00 0.00 0.00 0.00 0.00 0.00 0.00 0.00 0.00 0.00 0.00 0.00 0.00 0.00 0.00 0.00 0.01 0.01 0.00 0.01 0.01 0.00 0.00 0.00 0.00 0.00
0.00 0.00 0.00 0.00 0.00 0.00 0.00 0.00 0.00 0.00 0.00 0.00 0.00 0.00 0.00 0.00 0.00 0.00 0.00 0.00 0.00 0.00 0.00 0.00 0.00 0.00 0.00 0.00 0.01 0.01 0.00 0.00 0.00 0.00 0.00 0.00 0.00 0.00 0.00 0.01 0.01 0.00 0.00 0.01 0.00 0.00 0.00 0.00 0.00
0.00 0.00 0.00 0.00 0.00 0.00 0.00 0.00 0.00 0.00 0.00 0.00 0.00 0.00 0.00 0.00 0.00 0.00 0.00 0.00 0.00 0.00 0.00 0.00 0.00 0.00 0.00 0.00 0.01 0.01 0.00 0.00 0.00 0.00 0.00 0.00 0.00 0.00 0.00 0.00 0.00 0.00 0.00 0.00 0.00 0.00 0.00 0.00 0.00
0.00 0.00 0.00 0.00 0.00 0.00 0.00 0.00 0.00 0.00 0.00 0.00 0.00 0.00 0.00 0.00 0.00 0.00 0.00 0.00 0.00 0.00 0.00 0.00 0.00 0.00 0.00 0.00 0.01 0.01 0.00 0.00 0.00 0.00 0.00 0.00 0.00 0.00 0.00 0.00 0.00 0.00 0.00 0.00 0.00 0.00 0.00 0.00 0.00
0.00 0.00 0.00 0.00 0.00 0.00 0.00 0.00 0.00 0.00 0.00 0.00 0.00 0.00 0.00 0.00 0.00 0.00 0.00 0.00 0.00 0.00 0.00 0.00 0.00 0.00 0.00 0.00 0.00 0.00 0.00 0.00 0.00 0.00 0.00 0.00 0.00 0.00 0.00 0.00 0.00 0.00 0.00 0.00 0.00 0.00 0.00 0.00 0.00
0.00 0.00 0.00 0.00 0.00 0.00 0.00 0.00 0.00 0.00 0.00 0.00 0.00 0.00 0.00 0.00 0.00 0.00 0.00 0.00 0.00 0.00 0.00 0.01 0.00 0.00 0.00 0.00 0.00 0.00 0.00 0.00 0.00 0.00 0.00 0.00 0.00 0.00 0.00 0.00 0.00 0.00 0.00 0.00 0.00 0.00 0.00 0.00 0.00
0.00 0.00 0.00 0.00 0.00 0.00 0.00 0.00 0.00 0.00 0.00 0.00 0.00 0.00 0.00 0.00 0.00 0.00 0.00 0.00 0.00 0.00 0.00 0.01 0.00 0.00 0.00 0.00 0.00 0.00 0.00 0.00 0.00 0.00 0.00 0.00 0.00 0.00 0.00 0.00 0.00 0.00 0.00 0.00 0.00 0.00 0.00 0.00 0.00
0.00 0.00 0.00 0.00 0.00 0.00 0.00 0.00 0.00 0.00 0.00 0.00 0.00 0.00 0.00 0.00 0.00 0.00 0.00 0.00 0.00 0.00 0.00 0.01 0.00 0.00 0.00 0.00 0.00 0.00 0.00 0.00 0.00 0.00 0.00 0.00 0.00 0.00 0.00 0.00 0.00 0.00 0.00 0.00 0.00 0.00 0.00 0.00 0.00
0.00 0.00 0.00 0.00 0.00 0.00 0.00 0.00 0.00 0.00 0.00 0.00 0.00 0.00 0.00 0.00 0.00 0.00 0.00 0.00 0.00 0.00 0.00 0.00 0.00 0.00 0.00 0.00 0.00 0.00 0.00 0.00 0.00 0.00 0.00 0.00 0.00 0.00 0.00 0.00 0.00 0.00 0.00 0.00 0.00 0.00 0.00 0.00 0.00
0.00 0.00 0.00 0.00 0.00 0.00 0.00 0.00 0.00 0.00 0.00 0.00 0.00 0.00 0.00 0.00 0.00 0.00 0.00 0.00 0.00 0.00 0.00 0.00 0.00 0.00 0.00 0.00 0.00 0.00 0.00 0.00 0.00 0.00 0.00 0.00 0.00 0.00 0.00 0.00 0.00 0.00 0.00 0.00 0.00 0.00 0.00 0.00 0.00
0.00 0.00 0.00 0.00 0.00 0.00 0.00 0.00 0.00 0.00 0.00 0.00 0.00 0.00 0.00 0.00 0.00 0.00 0.00 0.00 0.00 0.00 0.00 0.00 0.00 0.00 0.00 0.00 0.00 0.00 0.00 0.00 0.00 0.00 0.00 0.00 0.00 0.00 0.00 0.00 0.00 0.00 0.00 0.00 0.00 0.00 0.00 0.00 0.00
0.00 0.00 0.00 0.00 0.00 0.00 0.00 0.00 0.00 0.00 0.00 0.00 0.00 0.00 0.00 0.00 0.00 0.00 0.00 0.00 0.00 0.00 0.00 0.00 0.00 0.00 0.00 0.00 0.00 0.00 0.00 0.00 0.00 0.00 0.00 0.00 0.00 0.00 0.00 0.00 0.00 0.00 0.00 0.00 0.00 0.00 0.00 0.00 0.00
0.00 0.00 0.00 0.00 0.00 0.00 0.00 0.00 0.00 0.00 0.00 0.00 0.00 0.00 0.00 0.00 0.00 0.00 0.00 0.00 0.00 0.00 0.00 0.00 0.00 0.00 0.00 0.00 0.00 0.00 0.00 0.00 0.00 0.00 0.00 0.00 0.00 0.00 0.00 0.00 0.00 0.00 0.00 0.00 0.00 0.00 0.00 0.00 0.00
0.00 0.00 0.00 0.00 0.00 0.00 0.00 0.00 0.00 0.00 0.00 0.00 0.00 0.00 0.00 0.00 0.00 0.00 0.00 0.00 0.00 0.00 0.00 0.00 0.00 0.00 0.00 0.00 0.00 0.00 0.00 0.00 0.00 0.00 0.00 0.00 0.00 0.00 0.00 0.00 0.00 0.00 0.00 0.00 0.00 0.00 0.00 0.00 0.00
0.00 0.00 0.00 0.00 0.00 0.00 0.00 0.00 0.00 0.00 0.00 0.00 0.00 0.00 0.00 0.00 0.00 0.00 0.00 0.00 0.00 0.00 0.00 0.00 0.00 0.00 0.00 0.00 0.00 0.00 0.00 0.00 0.00 0.00 0.00 0.00 0.00 0.00 0.00 0.00 0.00 0.00 0.00 0.00 0.00 0.00 0.00 0.00 0.00
0.00 0.00 0.00 0.00 0.00 0.00 0.00 0.00 0.00 0.00 0.00 0.00 0.00 0.00 0.00 0.00 0.00 0.00 0.00 0.00 0.00 0.00 0.00 0.00 0.00 0.00 0.00 0.00 0.00 0.00 0.00 0.00 0.00 0.00 0.00 0.00 0.00 0.00 0.00 0.00 0.00 0.00 0.00 0.00 0.00 0.00 0.00 0.00 0.00
0.00 0.00 0.00 0.00 0.00 0.00 0.00 0.00 0.00 0.00 0.00 0.00 0.00 0.00 0.00 0.00 0.00 0.00 0.00 0.00 0.00 0.00 0.00 0.00 0.00 0.00 0.00 0.00 0.00 0.00 0.00 0.00 0.00 0.00 0.00 0.00 0.00 0.00 0.00 0.00 0.00 0.00 0.00 0.00 0.00 0.00 0.00 0.00 0.00
0.00 0.00 0.00 0.00 0.00 0.00 0.00 0.00 0.00 0.00 0.00 0.00 0.00 0.00 0.00 0.00 0.00 0.00 0.00 0.00 0.00 0.00 0.00 0.00 0.00 0.00 0.00 0.00 0.00 0.00 0.00 0.00 0.00 0.00 0.00 0.00 0.00 0.00 0.00 0.00 0.00 0.00 0.00 0.00 0.00 0.00 0.00 0.00 0.00
0.00 0.00 0.00 0.00 0.00 0.00 0.00 0.00 0.00 0.00 0.00 0.00 0.00 0.00 0.00 0.00 0.00 0.00 0.00 0.00 0.00 0.00 0.00 0.00 0.00 0.00 0.00 0.00 0.00 0.00 0.00 0.00 0.00 0.00 0.00 0.01 0.00 0.01 0.00 0.00 0.00 0.00 0.00 0.00 0.00 0.00 0.00 0.00 0.00
0.00 0.00 0.00 0.00 0.00 0.00 0.00 0.00 0.00 0.00 0.00 0.00 0.00 0.00 0.00 0.00 0.00 0.00 0.00 0.00 0.00 0.00 0.00 0.00 0.00 0.00 0.00 0.00 0.00 0.00 0.00 0.00 0.00 0.00 0.00 0.01 0.01 0.01 0.01 0.01 0.01 0.01 0.01 0.02 0.00 0.00 0.00 0.00 0.00
0.00 0.00 0.00 0.00 0.00 0.00 0.00 0.00 0.00 0.00 0.00 0.00 0.00 0.00 0.00 0.00 0.00 0.00 0.00 0.00 0.00 0.00 0.00 0.00 0.00 0.00 0.00 0.00 0.00 0.00 0.00 0.00 0.00 0.00 0.00 0.00 0.00 0.01 0.01 0.02 0.02 0.02 0.01 0.01 0.01 0.00 0.00 0.00 0.00
0.00 0.00 0.00 0.00 0.00 0.00 0.00 0.00 0.00 0.00 0.00 0.00 0.00 0.00 0.00 0.00 0.00 0.00 0.00 0.00 0.00 0.00 0.00 0.00 0.00 0.00 0.00 0.00 0.00 0.00 0.00 0.00 0.00 0.00 0.01 0.00 0.00 0.00 0.00 0.01 0.01 0.01 0.00 0.00 0.00 0.00 0.00 0.00 0.00
0.00 0.00 0.00 0.00 0.00 0.00 0.00 0.00 0.00 0.00 0.00 0.00 0.00 0.00 0.00 0.00 0.00 0.00 0.00 0.00 0.00 0.00 0.00 0.00 0.00 0.00 0.00 0.00 0.00 0.00 0.00 0.00 0.00 0.00 0.00 0.00 0.00 0.00 0.00 0.00 0.00 0.00 0.00 0.00 0.00 0.00 0.00 0.00 0.00
0.00 0.00 0.00 0.00 0.00 0.00 0.00 0.00 0.00 0.00 0.00 0.00 0.00 0.00 0.00 0.00 0.00 0.00 0.00 0.00 0.00 0.00 0.00 0.00 0.00 0.00 0.00 0.00 0.00 0.00 0.00 0.00 0.00 0.00 0.01 0.00 0.00 0.00 0.00 0.00 0.00 0.00 0.00 0.00 0.00 0.00 0.00 0.00 0.00
0.00 0.00 0.00 0.00 0.00 0.00 0.00 0.00 0.00 0.00 0.00 0.00 0.00 0.00 0.00 0.00 0.00 0.00 0.00 0.00 0.00 0.00 0.00 0.00 0.00 0.00 0.00 0.00 0.00 0.00 0.00 0.00 0.00 0.00 0.00 0.00 0.00 0.00 0.00 0.00 0.00 0.00 0.00 0.00 0.00 0.00 0.00 0.00 0.00
0.00 0.00 0.00 0.00 0.00 0.00 0.00 0.00 0.00 0.00 0.00 0.00 0.00 0.00 0.00 0.00 0.00 0.00 0.00 0.00 0.00 0.00 0.00 0.00 0.00 0.00 0.00 0.00 0.00 0.00 0.00 0.00 0.00 0.00 0.00 0.00 0.00 0.00 0.00 0.00 0.00 0.00 0.00 0.00 0.00 0.00 0.00 0.00 0.00
0.00 0.00 0.00 0.00 0.00 0.00 0.00 0.00 0.00 0.00 0.00 0.00 0.00 0.00 0.00 0.00 0.00 0.00 0.00 0.00 0.00 0.00 0.00 0.00 0.00 0.00 0.00 0.00 0.00 0.00 0.00 0.00 0.00 0.00 0.00 0.00 0.00 0.00 0.00 0.00 0.00 0.00 0.00 0.00 0.00 0.00 0.00 0.00 0.00
0.00 0.00 0.00 0.00 0.00 0.00 0.00 0.00 0.00 0.00 0.00 0.00 0.00 0.00 0.00 0.00 0.00 0.00 0.00 0.00 0.00 0.00 0.00 0.00 0.00 0.00 0.00 0.00 0.00 0.00 0.00 0.00 0.00 0.00 0.00 0.00 0.00 0.00 0.00 0.00 0.00 0.00 0.00 0.00 0.00 0.00 0.00 0.00 0.00
0.00 0.00 0.00 0.00 0.00 0.00 0.00 0.00 0.00 0.00 0.00 0.00 0.00 0.00 0.00 0.00 0.00 0.00 0.00 0.00 0.00 0.00 0.00 0.00 0.00 0.00 0.00 0.00 0.00 0.00 0.00 0.00 0.00 0.00 0.00 0.00 0.00 0.00 0.00 0.00 0.00 0.00 0.00 0.00 0.00 0.00 0.00 0.00 0.00
MSLP
1016.21 1015.95 1015.69 1015.02 1014.91 1014.02 1014.05 1014.88 1015.33 1015.69 1016.24 1016.91 1016.99 1016.93 1016.97 1017.87 1018.21 1019.36 1020.41 1020.69 1020.70 1020.93 1021.46 1021.99 1022.42 1022.55 1022.65 1022.71 1022.61 1022.60 1022.56 1022.44 1022.52 1022.61 1022.77 1022.82 1022.75 1022.80 1022.72 1022.87 1022.80 1022.89 1022.81 1022.90 1023.02 1023.13 1023.11 1023.13 1023.11
1016.02 1015.72 1015.39 1014.78 1014.23 1013.59 1013.90 1015.00 1015.31 1015.87 1016.74 1017.22 1017.52 1017.63 1017.64 1018.43 1019.63 1020.14 1020.50 1020.91 1020.87 1021.13 1021.44 1021.97 1022.61 1022.69 1022.76 1022.79 1022.85 1022.82 1022.79 1022.91 1022.99 1023.00 1023.07 1023.12 1023.09 1023.13 1023.21 1023.26 1023.34 1023.44 1023.35 1023.36 1023.51 1023.63 1023.65 1023.67 1023.65
1016.08 1016.02 1015.10 1014.49 1014.06 1013.53 1013.96 1014.89 1015.35 1016.55 1017.19 1017.26 1017.55 1018.05 1018.32 1019.03 1020.06 1020.16 1020.59 1020.91 1021.22 1021.35 1021.64 1022.44 1022.77 1022.89 1022.98 1023.09 1023.17 1023.16 1023.19 1023.28 1023.36 1023.31 1023.31 1023.38 1023.50 1023.65 1023.67 1023.74 1023.82 1023.90 1023.91 1023.91 1023.94 1024.10 1024.13 1024.13 1024.09
1015.92 1015.59 1015.45 1014.45 1014.09 1014.53 1014.71 1015.09 1015.76 1016.73 1017.44 1017.67 1017.62 1018.14 1019.30 1019.85 1020.19 1020.31 1020.99 1021.07 1021.32 1021.68 1021.92 1022.82 1022.95 1023.04 1023.20 1023.32 1023.36 1023.41 1023.50 1023.64 1023.63 1023.63 1023.74 1023.83 1024.05 1024.13 1024.11 1024.21 1024.27 1024.39 1024.38 1024.39 1024.53 1024.60 1024.57 1024.56 1024.59
1016.08 1015.53 1014.60 1014.36 1014.57 1014.94 1015.43 1015.77 1016.06 1016.54 1017.08 1017.46 1017.89 1018.42 1019.59 1020.38 1020.48 1020.85 1021.13 1021.20 1021.78 1021.88 1022.17 1022.80 1023.28 1023.37 1023.55 1023.63 1023.58 1023.58 1023.78 1023.85 1023.90 1024.08 1024.15 1024.17 1024.38 1024.56 1024.65 1024.67 1024.68 1024.79 1024.93 1024.98 1025.01 1025.04 1025.04 1025.03 1025.04
1015.57 1015.44 1014.57 1014.29 1014.65 1015.05 1015.51 1015.93 1016.19 1016.64 1017.17 1017.82 1017.97 1018.40 1019.75 1020.87 1021.04 1021.12 1021.38 1021.56 1021.90 1022.02 1022.46 1022.97 1023.66 1023.68 1023.75 1023.96 1023.99 1023.94 1024.00 1024.12 1024.28 1024.29 1024.33 1024.51 1024.77 1024.96 1025.10 1025.15 1025.14 1025.25 1025.36 1025.42 1025.41 1025.42 1025.40 1025.47 1025.51
1015.67 1015.27 1014.67 1014.72 1014.79 1015.05 1015.48 1016.17 1016.28 1016.57 1017.15 1017.71 1018.03 1018.51 1020.31 1021.17 1021.28 1021.52 1021.59 1021.99 1022.28 1022.37 1022.52 1022.96 1023.50 1023.91 1024.20 1024.46 1024.54 1024.61 1024.53 1024.52 1024.68 1024.77 1024.89 1025.07 1025.27 1025.37 1025.57 1025.67 1025.63 1025.66 1025.78 1025.86 1025.88 1025.87 1025.82 1025.79 1025.77
1016.18 1015.78 1015.48 1015.24 1014.94 1015.11 1015.88 1016.27 1016.53 1016.72 1017.36 1018.26 1018.31 1018.43 1019.78 1020.81 1021.49 1021.77 1022.29 1022.38 1022.81 1022.77 1022.80 1022.94 1023.47 1023.72 1024.02 1024.56 1025.01 1025.12 1025.04 1025.12 1025.10 1025.19 1025.41 1025.62 1025.81 1025.90 1026.00 1026.04 1026.11 1026.17 1026.25 1026.25 1026.29 1026.25 1026.23 1026.21 1026.19
1016.90 1016.17 1015.69 1015.50 1015.61 1015.41 1016.10 1016.15 1016.76 1017.32 1017.35 1018.15 1018.62 1018.80 1019.45 1020.78 1021.54 1022.00 1022.54 1022.84 1023.01 1023.21 1023.28 1023.10 1023.49 1023.84 1024.23 1024.45 1025.17 1025.37 1025.57 1025.57 1025.68 1025.67 1025.81 1025.75 1025.68 1025.91 1025.91 1026.39 1026.48 1026.45 1026.45 1026.55 1026.63 1026.61 1026.60 1026.53 1026.43
1016.93 1016.53 1016.11 1016.40 1016.15 1015.93 1016.11 1016.06 1016.37 1016.91 1017.28 1017.86 1018.62 1019.59 1020.18 1021.08 1021.45 1021.72 1022.29 1022.63 1022.94 1023.12 1023.18 1023.26 1023.46 1023.80 1024.30 1024.71 1024.99 1025.13 1025.57 1025.42 1025.60 1025.69 1025.76 1025.83 1026.01 1026.19 1026.28 1026.73 1026.86 1026.85 1026.84 1026.80 1026.81 1026.82 1026.71 1026.30 1025.97
1018.12 1017.11 1016.98 1017.18 1016.93 1016.74 1016.47 1016.62 1016.45 1016.33 1016.64 1016.47 1017.33 1019.08 1020.27 1021.05 1021.43 1021.78 1022.10 1022.28 1022.40 1022.86 1023.16 1023.65 1023.50 1023.75 1024.07 1024.53 1024.86 1025.14 1025.38 1025.53 1025.70 1025.89 1026.01 1026.22 1026.27 1026.45 1026.45 1026.60 1026.58 1026.65 1026.94 1026.53 1026.60 1026.48 1026.38 1026.41 1026.16
1018.70 1018.39 1018.03 1018.00 1017.84 1017.20 1016.84 1016.72 1016.45 1016.18 1015.86 1016.37 1016.95 1018.58 1019.90 1020.61 1021.00 1021.23 1021.78 1022.03 1022.16 1022.48 1023.09 1023.44 1023.78 1023.80 1024.03 1024.26 1024.59 1024.93 1025.28 1025.62 1025.76 1025.96 1026.19 1026.24 1026.22 1026.43 1026.44 1026.41 1026.56 1026.58 1026.63 1026.68 1026.65 1026.59 1026.66 1026.50 1026.47
1018.29 1018.28 1018.34 1018.24 1018.07 1017.58 1017.25 1016.93 1016.24 1016.12 1016.58 1016.84 1017.23 1018.61 1019.51 1020.22 1020.68 1020.90 1021.50 1022.03 1022.18 1022.50 1023.09 1023.32 1023.66 1023.90 1024.14 1024.36 1024.32 1024.58 1024.88 1025.24 1025.45 1025.85 1026.13 1026.14 1026.25 1026.44 1026.56 1026.62 1026.61 1026.64 1026.73 1026.64 1026.60 1026.58 1026.54 1026.47 1026.45
1018.14 1018.43 1018.52 1018.19 1017.89 1017.85 1017.36 1017.07 1016.93 1015.60 1016.28 1016.97 1017.47 1018.05 1018.93 1019.66 1020.07 1020.65 1021.20 1021.43 1021.89 1022.41 1023.16 1023.54 1023.62 1023.91 1024.29 1024.76 1024.65 1024.70 1024.92 1025.15 1025.41 1025.62 1025.81 1026.08 1026.17 1026.36 1026.39 1026.50 1026.60 1026.71 1026.73 1026.74 1026.64 1026.55 1026.47 1026.43 1026.49
1018.19 1018.77 1018.82 1018.61 1018.18 1018.13 1017.71 1017.24 1016.38 1016.08 1016.40 1016.85 1017.22 1017.69 1018.34 1019.02 1019.98 1020.05 1020.40 1020.81 1021.36 1021.81 1022.33 1023.12 1023.58 1024.06 1024.42 1024.64 1024.90 1024.83 1024.98 1025.17 1025.26 1025.47 1025.78 1025.90 1026.05 1026.17 1026.23 1026.30 1026.39 1026.48 1026.68 1026.74 1026.69 1026.63 1026.57 1026.34 1026.38
1018.48 1018.54 1018.34 1018.24 1017.78 1018.14 1017.86 1016.46 1015.86 1016.26 1016.30 1016.36 1016.81 1017.40 1018.17 1018.68 1019.15 1019.65 1019.79 1020.38 1020.78 1021.19 1021.71 1022.45 1022.90 1023.41 1024.06 1024.44 1024.60 1024.45 1024.69 1024.99 1025.12 1025.31 1025.54 1025.86 1026.02 1026.14 1026.23 1026.22 1026.25 1026.39 1026.48 1026.43 1026.39 1026.36 1026.25 1026.29 1026.15
1018.65 1018.37 1017.91 1017.93 1017.82 1017.80 1017.98 1016.89 1016.35 1016.53 1016.26 1015.99 1016.48 1016.95 1017.59 1018.22 1018.93 1019.27 1019.52 1019.88 1020.20 1020.54 1021.27 1021.78 1022.43 1022.76 1023.17 1023.63 1024.00 1024.16 1024.45 1024.73 1024.96 1025.10 1025.27 1025.57 1025.87 1026.13 1026.02 1026.09 1026.11 1026.29 1026.31 1026.69 1026.70 1026.49 1026.83 1026.52 1026.26
1018.24 1018.02 1017.97 1017.62 1018.05 1018.19 1017.75 1016.78 1016.10 1016.51 1016.54 1016.03 1016.02 1016.59 1016.95 1017.27 1017.78 1018.52 1018.94 1019.17 1019.63 1020.10 1020.65 1021.15 1021.82 1022.27 1022.66 1023.12 1023.56 1023.84 1024.08 1024.28 1024.44 1024.64 1024.84 1025.10 1025.59 1025.95 1026.10 1025.77 1025.91 1026.31 1026.48 1026.58 1026.58 1026.66 1026.43 1026.76 1026.55
1017.63 1017.54 1017.76 1018.05 1018.16 1018.18 1017.40 1016.49 1016.00 1015.91 1016.33 1016.19 1015.84 1015.95 1016.23 1016.51 1016.92 1017.70 1018.38 1018.88 1019.16 1019.52 1020.01 1020.38 1020.91 1021.37 1022.03 1022.53 1023.02 1023.35 1023.40 1023.63 1023.81 1024.09 1024.54 1025.01 1025.26 1025.46 1025.72 1025.85 1025.91 1026.01 1026.03 1026.21 1026.23 1026.64 1026.62 1026.74 1026.68
1017.86 1017.64 1017.82 1018.19 1018.29 1018.14 1017.23 1016.20 1015.94 1015.47 1015.36 1015.61 1015.30 1015.26 1015.38 1016.02 1016.48 1016.99 1017.50 1018.17 1018.84 1018.90 1019.17 1019.63 1020.18 1020.64 1021.29 1021.64 1021.90 1022.20 1022.58 1022.83 1022.87 1023.29 1023.98 1024.23 1024.54 1024.82 1025.09 1025.28 1025.54 1025.54 1025.86 1026.20 1026.38 1026.57 1026.64 1026.68 1026.75
1018.14 1017.92 1018.10 1018.17 1018.51 1018.02 1017.61 1015.79 1014.89 1014.57 1014.78 1014.99 1015.06 1014.76 1014.85 1015.21 1015.42 1016.20 1016.79 1017.10 1017.84 1018.09 1018.36 1018.71 1019.22 1019.75 1020.38 1020.88 1021.30 1021.80 1022.02 1022.41 1022.65 1023.00 1023.33 1023.63 1023.86 1024.04 1024.26 1024.51 1024.83 1025.09 1025.28 1025.44 1025.87 1026.15 1026.40 1026.50 1026.93
1018.58 1018.80 1018.71 1018.88 1018.89 1018.15 1017.33 1014.92 1013.31 1013.34 1013.33 1013.83 1014.06 1014.20 1014.21 1014.56 1014.82 1015.13 1015.87 1016.32 1016.70 1016.97 1017.70 1018.11 1018.30 1018.75 1019.33 1019.94 1020.49 1020.89 1021.10 1021.39 1021.64 1021.92 1022.26 1022.44 1023.02 1023.37 1023.72 1023.93 1024.15 1024.33 1024.42 1024.88 1025.29 1025.72 1026.00 1026.24 1026.53
1018.97 1019.20 1019.62 1019.63 1019.28 1018.83 1017.72 1016.55 1012.55 1012.86 1012.49 1012.40 1012.96 1013.37 1013.57 1013.75 1013.91 1014.17 1014.74 1015.13 1015.58 1016.45 1016.77 1017.27 1017.61 1017.93 1018.45 1019.11 1019.47 1020.03 1020.38 1020.50 1020.78 1021.20 1021.60 1022.00 1022.30 1022.71 1023.02 1023.31 1023.61 1023.84 1024.29 1024.77 1025.32 1025.81 1026.00 1026.22 1026.39
1019.40 1019.93 1020.53 1020.33 1019.78 1018.52 1016.99 1016.64 1012.99 1012.26 1011.40 1011.29 1011.50 1011.75 1012.41 1012.85 1013.48 1013.47 1013.87 1014.65 1015.04 1015.69 1016.16 1016.61 1016.99 1017.17 1017.77 1018.34 1018.86 1018.86 1019.31 1019.92 1020.26 1020.70 1021.08 1021.52 1021.90 1022.30 1022.48 1022.85 1023.24 1023.85 1024.43 1024.84 1025.37 1025.84 1026.00 1026.34 1026.64
1019.37 1019.96 1021.17 1021.39 1020.56 1018.06 1017.24 1016.18 1012.16 1011.23 1011.10 1010.71 1010.39 1010.27 1011.14 1011.84 1012.50 1013.10 1013.80 1014.19 1014.35 1014.78 1015.23 1015.90 1016.23 1016.50 1016.98 1017.55 1017.94 1018.26 1018.48 1018.95 1019.42 1019.81 1020.37 1020.79 1021.61 1022.23 1022.59 1022.77 1023.43 1023.97 1024.51 1025.11 1025.52 1025.80 1026.08 1026.38 1026.76
1019.22 1019.31 1019.80 1019.88 1019.67 1018.15 1017.78 1014.62 1011.65 1010.99 1010.41 1010.77 1010.60 1010.55 1010.97 1011.61 1012.27 1012.57 1012.78 1013.53 1014.07 1014.50 1014.74 1015.24 1015.62 1015.89 1016.32 1016.84 1017.10 1017.68 1017.97 1018.31 1018.57 1019.06 1019.53 1020.16 1020.65 1021.32 1021.86 1022.37 1023.00 1023.73 1024.76 1025.59 1025.92 1025.98 1026.16 1026.53 1027.22
1019.09 1019.27 1019.49 1019.70 1019.99 1018.74 1016.02 1013.41 1011.96 1010.95 1010.45 1010.63 1010.91 1011.42 1011.26 1011.40 1012.13 1012.40 1012.70 1012.92 1013.31 1014.05 1014.46 1014.65 1014.99 1015.35 1015.60 1016.00 1016.61 1016.98 1017.38 1017.92 1018.34 1018.69 1019.10 1019.65 1020.27 1021.39 1022.15 1022.47 1022.95 1024.02 1024.56 1025.22 1025.59 1026.33 1026.79 1027.03 1027.53
1017.64 1018.34 1019.09 1019.14 1018.63 1017.42 1014.85 1013.54 1011.52 1010.79 1010.24 1010.42 1010.69 1010.89 1011.24 1011.50 1012.04 1012.44 1012.41 1012.46 1012.73 1013.13 1013.57 1014.00 1014.47 1014.66 1015.11 1015.64 1015.92 1016.41 1016.86 1017.32 1017.78 1018.32 1018.85 1019.50 1020.18 1020.79 1021.86 1022.48 1022.87 1023.95 1024.61 1025.00 1025.18 1026.32 1026.97 1027.41 1027.93
1017.45 1017.56 1017.64 1017.70 1017.54 1016.26 1014.69 1012.26 1010.89 1010.46 1010.04 1010.19 1010.53 1010.70 1010.97 1011.50 1011.61 1011.98 1012.32 1012.43 1012.69 1013.08 1013.22 1013.39 1014.02 1014.23 1014.86 1015.53 1015.76 1016.02 1016.26 1016.74 1017.48 1018.09 1018.84 1019.29 1019.86 1020.54 1021.27 1021.77 1022.92 1023.63 1024.12 1024.63 1025.36 1026.20 1026.82 1027.33 1027.90
1016.03 1015.89 1016.35 1015.93 1016.29 1015.80 1014.96 1012.22 1010.88 1010.47 1010.35 1010.52 1010.85 1011.08 1011.00 1011.55 1011.83 1012.12 1012.34 1012.74 1012.89 1013.24 1013.42 1013.29 1014.08 1014.20 1014.46 1015.18 1015.59 1015.91 1016.09 1016.51 1017.02 1017.44 1018.29 1019.13 1019.79 1020.31 1020.97 1021.75 1022.42 1023.33 1023.72 1024.44 1025.46 1026.22 1026.81 1027.35 1027.76
Thickness
5728 5732 5738 5740 5719 5723 5709 5708 5719 5714 5714 5715 5720 5717 5715 5709 5705 5692 5696 5693 5690 5687 5683 5681 5679 5680 5680 5681 5683 5685 5687 5689 5688 5689 5689 5689 5690 5690 5690 5690 5691 5690 5690 5689 5688 5687 5687 5686 5685
5726 5733 5735 5728 5712 5707 5711 5715 5710 5717 5715 5716 5714 5712 5712 5703 5696 5693 5692 5691 5689 5686 5684 5681 5678 5679 5679 5680 5682 5685 5686 5685 5685 5687 5687 5687 5688 5688 5688 5687 5687 5687 5687 5686 5685 5683 5682 5681 5680
5725 5727 5722 5716 5710 5709 5710 5716 5719 5712 5713 5714 5711 5712 5709 5699 5695 5696 5697 5690 5687 5686 5684 5679 5678 5678 5679 5679 5681 5682 5683 5682 5682 5684 5685 5686 5685 5684 5684 5685 5684 5684 5683 5683 5682 5680 5679 5678 5677
5720 5721 5718 5709 5702 5710 5713 5718 5718 5708 5707 5712 5715 5703 5702 5704 5696 5700 5693 5690 5686 5684 5684 5678 5679 5679 5679 5679 5680 5681 5681 5681 5682 5683 5684 5684 5683 5682 5683 5683 5682 5681 5681 5680 5678 5677 5677 5676 5675
5714 5711 5704 5701 5701 5707 5710 5713 5715 5708 5709 5710 5711 5700 5695 5698 5701 5698 5693 5690 5685 5683 5682 5677 5677 5678 5678 5678 5679 5681 5680 5681 5682 5682 5681 5682 5681 5681 5681 5680 5680 5679 5677 5676 5675 5674 5673 5673 5672
5700 5706 5696 5695 5700 5708 5710 5713 5712 5709 5708 5704 5707 5705 5696 5696 5694 5695 5692 5688 5685 5684 5681 5677 5675 5677 5678 5677 5678 5680 5680 5680 5680 5680 5680 5680 5680 5678 5677 5677 5677 5676 5674 5673 5673 5672 5672 5670 5670
5693 5696 5696 5698 5700 5704 5708 5711 5707 5709 5706 5704 5711 5701 5692 5689 5693 5692 5691 5686 5684 5682 5683 5679 5678 5676 5676 5676 5677 5677 5678 5678 5678 5678 5679 5678 5677 5676 5674 5673 5673 5673 5672 5671 5670 5669 5669 5669 5669
5695 5695 5684 5694 5699 5702 5705 5705 5708 5709 5704 5706 5710 5702 5690 5692 5692 5690 5685 5684 5682 5682 5683 5681 5679 5679 5677 5674 5674 5675 5677 5677 5677 5677 5676 5675 5674 5673 5672 5671 5670 5669 5668 5668 5667 5667 5667 5666 5665
5690 5685 5682 5690 5689 5703 5704 5704 5704 5704 5705 5701 5703 5706 5704 5694 5691 5688 5682 5680 5681 5681 5681 5681 5680 5679 5676 5675 5673 5673 5674 5675 5675 5674 5673 5673 5672 5671 5671 5670 5668 5668 5667 5666 5665 5664 5664 5663 5663
5682 5681 5689 5692 5697 5702 5704 5710 5707 5704 5701 5698 5698 5697 5698 5691 5690 5688 5683 5681 5680 5680 5681 5681 5680 5680 5676 5673 5673 5673 5671 5673 5673 5673 5672 5672 5671 5670 5669 5667 5666 5665 5665 5664 5663 5662 5662 5662 5662
5662 5684 5687 5683 5690 5697 5700 5698 5710 5709 5699 5713 5708 5699 5693 5688 5687 5686 5685 5687 5687 5686 5681 5679 5680 5681 5679 5675 5674 5674 5673 5672 5673 5671 5670 5669 5669 5668 5667 5666 5666 5665 5663 5664 5662 5661 5661 5659 5659
5652 5662 5670 5674 5678 5688 5693 5700 5702 5708 5714 5718 5719 5706 5695 5691 5688 5689 5686 5686 5687 5688 5683 5679 5678 5680 5680 5677 5675 5674 5673 5671 5670 5669 5668 5668 5668 5667 5666 5666 5665 5664 5663 5661 5660 5659 5657 5656 5654
5661 5664 5664 5668 5675 5683 5687 5691 5702 5702 5707 5712 5714 5702 5695 5693 5692 5694 5690 5687 5686 5685 5683 5680 5678 5678 5678 5677 5678 5676 5675 5673 5670 5668 5667 5667 5666 5665 5664 5663 5662 5661 5659 5659 5658 5656 5654 5653 5651
5661 5659 5658 5663 5671 5675 5680 5685 5690 5710 5711 5706 5705 5704 5700 5696 5695 5693 5689 5688 5686 5684 5680 5678 5677 5675 5674 5674 5675 5675 5673 5672 5671 5669 5668 5667 5666 5664 5664 5662 5661 5659 5657 5656 5655 5653 5651 5650 5647
5654 5646 5649 5653 5660 5663 5673 5673 5687 5700 5702 5700 5702 5704 5703 5701 5694 5693 5693 5690 5688 5686 5685 5680 5677 5674 5673 5672 5672 5672 5673 5673 5672 5671 5669 5668 5666 5664 5663 5661 5660 5658 5655 5653 5651 5649 5648 5647 5644
5644 5646 5642 5651 5658 5656 5665 5677 5691 5691 5696 5700 5701 5702 5698 5698 5696 5695 5698 5694 5693 5691 5687 5684 5680 5678 5673 5671 5672 5675 5674 5672 5672 5670 5668 5666 5664 5662 5661 5660 5659 5656 5654 5652 5650 5648 5647 5644 5642
5626 5625 5645 5653 5653 5653 5654 5664 5677 5682 5689 5698 5699 5699 5697 5697 5694 5695 5696 5695 5695 5695 5690 5687 5683 5682 5680 5677 5674 5674 5673 5671 5670 5669 5667 5665 5662 5661 5659 5657 5656 5654 5652 5649 5646 5644 5639 5638 5638
5615 5631 5638 5648 5648 5645 5649 5661 5679 5677 5677 5688 5696 5695 5697 5700 5698 5695 5696 5697 5696 5695 5693 5691 5687 5684 5683 5681 5677 5675 5674 5672 5670 5668 5667 5665 5661 5658 5655 5655 5653 5648 5647 5645 5643 5640 5637 5632 5630
5631 5639 5639 5638 5642 5637 5647 5661 5671 5681 5673 5677 5687 5693 5695 5699 5699 5698 5697 5695 5696 5696 5694 5693 5691 5688 5685 5683 5679 5676 5675 5675 5674 5670 5667 5664 5660 5657 5654 5651 5648 5645 5643 5641 5638 5635 5633 5628 5625
5626 5628 5634 5634 5632 5637 5648 5658 5665 5674 5678 5680 5687 5691 5697 5695 5694 5697 5699 5697 5693 5696 5696 5694 5691 5689 5686 5684 5683 5682 5678 5678 5678 5675 5669 5666 5662 5658 5655 5651 5646 5643 5640 5635 5633 5629 5626 5624 5619
5618 5626 5624 5629 5625 5631 5636 5653 5665 5675 5675 5677 5680 5691 5694 5695 5697 5696 5696 5699 5695 5696 5697 5696 5693 5691 5688 5684 5682 5681 5679 5676 5675 5672 5669 5666 5663 5660 5656 5652 5646 5643 5639 5637 5631 5627 5622 5619 5611
5601 5612 5617 5615 5618 5622 5636 5648 5678 5679 5682 5677 5682 5684 5691 5692 5695 5699 5697 5698 5701 5702 5694 5694 5697 5695 5692 5688 5684 5682 5679 5676 5675 5674 5671 5669 5662 5658 5653 5650 5647 5642 5639 5635 5630 5624 5620 5616 5609
5598 5606 5602 5606 5608 5608 5619 5618 5680 5673 5676 5687 5683 5684 5687 5692 5695 5697 5699 5702 5703 5696 5696 5695 5694 5696 5693 5689 5687 5681 5679 5679 5676 5673 5670 5666 5662 5656 5652 5648 5644 5640 5635 5629 5623 5617 5612 5608 5604
5589 5587 5585 5590 5599 5599 5627 5619 5658 5673 5681 5689 5694 5693 5689 5690 5688 5696 5699 5696 5697 5695 5694 5694 5693 5694 5690 5687 5683 5685 5680 5674 5671 5669 5666 5663 5659 5654 5649 5645 5640 5634 5627 5622 5615 5608 5603 5598 5593
5581 5581 5561 5562 5570 5602 5607 5615 5658 5684 5687 5692 5697 5703 5696 5693 5689 5689 5687 5686 5692 5693 5693 5690 5690 5689 5686 5683 5681 5680 5679 5675 5670 5667 5663 5661 5652 5647 5643 5640 5632 5626 5620 5613 5607 5601 5595 5589 5583
5574 5582 5571 5571 5579 5607 5583 5620 5662 5678 5691 5686 5688 5693 5690 5686 5682 5681 5686 5686 5686 5687 5689 5687 5686 5685 5683 5679 5679 5676 5675 5672 5671 5667 5662 5657 5653 5648 5642 5636 5628 5622 5610 5599 5594 5590 5586 5579 5569
5560 5561 5572 5565 5529 5577 5614 5641 5658 5666 5674 5675 5673 5669 5677 5680 5673 5673 5674 5682 5684 5680 5681 5683 5681 5679 5679 5678 5673 5672 5670 5666 5662 5660 5657 5654 5648 5636 5630 5626 5621 5610 5603 5594 5586 5578 5571 5565 5558
5570 5572 5555 5560 5560 5572 5613 5613 5645 5656 5667 5670 5666 5668 5668 5667 5665 5665 5669 5675 5679 5678 5678 5676 5676 5676 5673 5670 5670 5667 5664 5661 5657 5653 5648 5643 5638 5632 5622 5616 5609 5600 5592 5585 5580 5568 5559 5552 5545
5558 5557 5565 5571 5567 5577 5589 5626 5650 5652 5659 5663 5664 5664 5666 5665 5665 5665 5664 5666 5669 5670 5671 5673 5669 5670 5664 5659 5659 5659 5659 5656 5649 5644 5637 5633 5628 5624 5618 5612 5599 5591 5585 5577 5567 5557 5549 5542 5534
5566 5569 5567 5569 5559 5572 5569 5609 5637 5642 5645 5644 5646 5647 5653 5650 5652 5653 5655 5653 5654 5657 5660 5664 5658 5659 5658 5652 5650 5650 5650 5648 5644 5641 5632 5623 5617 5612 5607 5599 5591 5582 5576 5566 5555 5545 5538 5531 5525